DW8500 Weather Reports


Display with metric or nautical units.
time (UTC)temp
F
wind
direction
speed
MPH
gust
MPH
rain 1hr
in
rain 24hr
in
rain mn
in
humidity
%
barometer
mb
20260906222343 67 347 1.0 5.0 0.00 0.89 0.27 40 1012.2
20260906221910 67 240 1.0 4.0 0.00 0.89 0.27 39 1012.2
20260906221530 67 280 0.0 6.0 0.00 0.89 0.27 39 1011.8
20260906221359 68 271 1.0 6.0 0.00 0.89 0.27 40 1012.1
20260906220850 69 31 2.0 6.0 0.00 0.89 0.27 36 1012.1
20260906220349 70 70 1.0 4.0 0.00 0.89 0.27 37 1012.1
20260906220048 69 257 1.0 7.0 0.00 0.89 0.27 37 1011.8
20260906215847 70 6 2.0 7.0 0.00 0.89 0.27 36 1012.1
20260906215348 70 318 1.0 7.0 0.00 0.89 0.27 35 1012.0
20260906214845 70 33 1.0 3.0 0.00 0.89 0.27 35 1012.0
20260906214546 70 222 1.0 3.0 0.00 0.89 0.27 35 1011.7
20260906214345 71 338 1.0 5.0 0.00 0.89 0.27 38 1011.9
20260906213837 71 77 1.0 9.0 0.00 0.89 0.27 36 1012.0
20260906213336 71 245 2.0 9.0 0.00 0.89 0.27 34 1011.9
20260906213102 71 229 1.0 12.0 0.00 0.89 0.27 35 1011.5
20260906212853 71 99 1.0 12.0 0.00 0.89 0.27 35 1011.9
20260906212415 71 300 2.0 12.0 0.00 0.89 0.27 35 1011.8
20260906211911 72 353 2.0 8.0 0.00 0.89 0.27 36 1011.8
20260906211600 71 234 1.0 8.0 0.00 0.89 0.27 36 1011.4
20260906211348 72 314 2.0 8.0 0.00 0.89 0.27 34 1011.7
20260906210845 72 281 1.0 5.0 0.00 0.89 0.27 36 1011.8
20260906210346 72 191 1.0 7.0 0.00 0.89 0.27 35 1011.6
20260906210052 71 308 1.0 7.0 0.00 0.89 0.27 34 1011.3
20260906205846 72 243 3.0 7.0 0.00 0.89 0.27 33 1011.6
20260906205346 72 58 1.0 5.0 0.00 0.89 0.27 35 1011.7
20260906204844 73 56 1.0 7.0 0.00 0.89 0.27 35 1011.6
20260906204542 72 316 0.0 7.0 0.00 0.89 0.27 38 1011.2
20260906204340 72 275 1.0 7.0 0.00 0.89 0.27 38 1011.5
20260906203834 72 140 2.0 6.0 0.00 0.89 0.27 35 1011.4
20260906203355 72 49 2.0 4.0 0.00 0.89 0.27 37 1011.4
20260906203101 72 68 1.0 4.0 0.00 0.89 0.27 43 1011.1
20260906202854 72 108 1.0 6.0 0.00 0.89 0.27 39 1011.3
20260906202354 72 53 1.0 8.0 0.00 0.89 0.27 40 1011.4
20260906201850 72 336 3.0 8.0 0.00 0.89 0.27 37 1011.4
20260906201559 71 20 1.0 6.0 0.00 0.89 0.27 37 1011.0
20260906201349 72 249 1.0 6.0 0.00 0.89 0.27 40 1011.3
20260906200845 72 330 1.0 5.0 0.00 0.89 0.27 39 1011.3
20260906200405 72 12 1.0 6.0 0.00 0.89 0.27 39 1011.3
20260906200047 72 307 1.0 6.0 0.00 0.89 0.27 38 1011.0
20260906195842 72 324 2.0 6.0 0.00 0.89 0.27 39 1011.3
20260906195338 72 223 1.0 6.0 0.00 0.89 0.27 40 1011.2
20260906194854 72 15 1.0 5.0 0.00 0.89 0.27 43 1011.3
20260906194535 72 262 1.0 5.0 0.00 0.89 0.27 42 1010.9
20260906194334 72 78 1.0 5.0 0.00 0.89 0.27 41 1011.2
20260906193851 72 307 1.0 5.0 0.00 0.89 0.27 44 1011.2
20260906193351 72 275 2.0 7.0 0.00 0.89 0.27 40 1011.3
20260906193104 72 303 0.0 7.0 0.00 0.89 0.27 40 1010.9
20260906192846 72 268 1.0 7.0 0.00 0.89 0.27 43 1011.2
20260906191901 72 266 2.0 7.0 0.00 0.89 0.27 44 1011.2
20260906191550 71 266 2.0 7.0 0.00 0.89 0.27 46 1011.0
20260906191342 71 303 2.0 6.0 0.00 0.89 0.27 44 1011.3
20260906190839 72 129 1.0 6.0 0.00 0.89 0.27 46 1011.3
20260906190357 72 267 1.0 5.0 0.00 0.89 0.27 49 1011.3
20260906190055 71 77 0.0 5.0 0.00 0.89 0.27 47 1011.1
20260906185855 72 124 1.0 5.0 0.00 0.89 0.27 47 1011.4
20260906185353 72 320 1.0 3.0 0.00 0.89 0.27 51 1011.4
20260906184849 71 118 0.0 2.0 0.00 0.89 0.27 50 1011.4
20260906184551 70 115 0.0 2.0 0.00 0.89 0.27 48 1011.0
20260906184348 70 214 1.0 3.0 0.00 0.89 0.27 46 1011.5
20260906183845 70 220 1.0 3.0 0.00 0.89 0.27 49 1011.6
20260906183345 70 233 1.0 4.0 0.00 0.89 0.27 48 1011.7
20260906183044 69 48 1.0 6.0 0.00 0.89 0.27 47 1011.4
20260906182843 70 13 1.0 6.0 0.00 0.89 0.27 47 1011.7
20260906182343 69 241 2.0 6.0 0.00 0.89 0.27 47 1011.6
20260906181900 68 260 1.0 5.0 0.00 0.89 0.27 53 1011.8
20260906181632 67 221 0.0 5.0 0.00 0.89 0.27 51 1011.5
20260906181356 68 13 1.0 5.0 0.00 0.89 0.27 50 1011.9
20260906180852 68 267 0.0 2.0 0.00 0.89 0.27 52 1012.0
20260906180351 68 354 1.0 3.0 0.00 0.89 0.27 51 1011.9
20260906180051 68 15 0.0 3.0 0.00 0.89 0.27 51 1011.7
20260906175849 68 239 1.0 3.0 0.00 0.89 0.27 52 1011.9
20260906175429 68 232 1.0 6.0 0.00 0.89 0.27 50 1011.9
20260906174841 69 276 2.0 6.0 0.00 0.89 0.27 49 1012.0
20260906174548 69 276 1.0 6.0 0.00 0.89 0.27 50 1011.8
20260906174341 70 71 2.0 6.0 0.00 0.89 0.27 48 1012.0
20260906173900 70 31 1.0 5.0 0.00 0.89 0.27 44 1011.9
20260906173336 69 335 1.0 3.0 0.00 0.89 0.27 49 1011.9
20260906173056 69 259 0.0 5.0 0.00 0.89 0.27 50 1011.8
20260906172855 69 311 0.0 5.0 0.00 0.89 0.27 53 1012.0
20260906172353 68 308 2.0 5.0 0.00 0.89 0.27 51 1012.1
20260906171850 67 180 0.0 2.0 0.00 0.89 0.27 53 1012.3
20260906171605 67 253 0.0 2.0 0.00 0.89 0.27 52 1012.1
20260906171350 67 342 0.0 3.0 0.00 0.89 0.27 52 1012.5
20260906170846 68 218 0.0 4.0 0.00 0.89 0.27 53 1012.3
20260906170406 67 269 1.0 4.0 0.00 0.89 0.27 49 1012.4
20260906170050 67 292 1.0 4.0 0.00 0.89 0.27 50 1012.1
20260906165842 67 131 1.0 4.0 0.00 0.89 0.27 53 1012.4
20260906165400 67 11 1.0 4.0 0.00 0.89 0.27 54 1012.4
20260906164915 66 265 0.0 4.0 0.00 0.89 0.27 54 1012.5
20260906164513 66 259 1.0 8.0 0.00 0.89 0.27 52 1012.2
20260906164412 66 280 2.0 8.0 0.00 0.89 0.27 52 1012.6
20260906163908 66 189 2.0 8.0 0.00 0.89 0.27 52 1012.6
20260906163346 66 49 1.0 4.0 0.00 0.89 0.27 54 1012.8
20260906163047 65 251 0.0 4.0 0.00 0.89 0.27 57 1012.5
20260906162846 65 139 0.0 3.0 0.00 0.89 0.27 57 1012.8
20260906162346 65 254 1.0 5.0 0.00 0.89 0.27 57 1012.8
20260906161843 64 248 1.0 5.0 0.00 0.89 0.27 58 1012.7
20260906161544 64 244 1.0 5.0 0.00 0.89 0.27 58 1012.6
20260906161342 64 257 1.0 3.0 0.00 0.89 0.27 58 1012.9
20260906160839 64 293 1.0 3.0 0.00 0.89 0.27 57 1012.9
20260906160355 65 288 0.0 4.0 0.00 0.89 0.27 57 1012.8
20260906160053 64 285 1.0 4.0 0.00 0.89 0.27 56 1012.4
20260906155851 65 165 1.0 4.0 0.00 0.89 0.27 55 1012.8
20260906155351 65 256 0.0 4.0 0.00 0.89 0.27 58 1012.8
20260906154848 64 84 1.0 7.0 0.00 0.89 0.27 57 1012.8
20260906154550 64 218 0.0 7.0 0.00 0.89 0.27 56 1012.5
20260906154348 65 320 1.0 7.0 0.00 0.89 0.27 59 1012.9
20260906153846 65 250 1.0 4.0 0.00 0.89 0.27 57 1012.9
20260906153346 65 249 1.0 5.0 0.00 0.89 0.27 59 1012.9
20260906153044 64 246 1.0 5.0 0.00 0.89 0.27 59 1012.6
20260906152842 64 241 1.0 5.0 0.00 0.89 0.27 58 1013.0
20260906152343 64 253 1.0 4.0 0.00 0.89 0.27 59 1012.9
20260906151901 63 265 1.0 4.0 0.00 0.89 0.27 60 1013.0
20260906151548 62 292 1.0 4.0 0.00 0.89 0.27 60 1012.7
20260906151341 63 238 1.0 4.0 0.00 0.89 0.27 60 1013.0
20260906150837 62 142 1.0 4.0 0.00 0.89 0.27 60 1013.0
20260906150347 62 186 0.0 3.0 0.00 0.89 0.27 61 1013.0
20260906150006 61 293 1.0 4.0 0.00 0.89 0.27 60 1012.8
20260906145849 61 241 1.0 4.0 0.00 0.89 0.27 61 1013.1
20260906145409 61 158 1.0 4.0 0.00 0.89 0.27 62 1013.2
20260906144846 61 271 0.0 3.0 0.00 0.89 0.27 63 1013.2
20260906144606 60 110 0.0 3.0 0.00 0.89 0.27 63 1012.8
20260906144348 61 241 1.0 3.0 0.00 0.89 0.27 63 1013.1
20260906143844 61 48 0.0 2.0 0.00 0.89 0.27 64 1013.1
20260906143344 61 226 1.0 2.0 0.00 0.89 0.27 64 1013.2
20260906143038 60 62 0.0 2.0 0.00 0.89 0.27 64 1012.9
20260906142834 60 276 0.0 2.0 0.00 0.89 0.27 64 1013.2
20260906142412 60 263 0.0 2.0 0.00 0.89 0.27 65 1013.3
20260906141909 60 261 0.0 2.0 0.00 0.89 0.27 65 1013.2
20260906141550 60 309 0.0 2.0 0.00 0.89 0.27 65 1013.0
20260906141346 60 290 0.0 2.0 0.00 0.89 0.27 65 1013.3
20260906140834 60 228 0.0 1.0 0.00 0.89 0.27 65 1013.2
20260906140340 60 248 0.0 1.0 0.00 0.89 0.27 65 1013.2
20260906140039 59 241 0.0 1.0 0.00 0.89 0.27 65 1013.0
20260906135837 60 274 0.0 1.0 0.00 0.89 0.27 66 1013.2
20260906135404 60 345 0.0 1.0 0.00 0.89 0.27 66 1013.1
20260906134849 59 344 0.0 3.0 0.00 0.89 0.27 65 1013.0
20260906134552 59 344 0.0 3.0 0.00 0.89 0.27 65 1012.8
20260906134349 59 343 1.0 3.0 0.00 0.89 0.27 65 1012.9
20260906133846 59 330 0.0 1.0 0.00 0.89 0.27 66 1012.9
20260906133346 59 91 0.0 1.0 0.00 0.89 0.27 66 1012.8
20260906133100 59 273 0.0 2.0 0.00 0.89 0.27 66 1012.5
20260906132844 59 273 0.0 2.0 0.00 0.89 0.27 66 1012.8
20260906132345 59 274 1.0 2.0 0.00 0.89 0.27 66 1012.9
20260906131839 59 3 0.0 2.0 0.00 0.89 0.27 66 1012.9
20260906131539 58 3 0.0 3.0 0.00 0.89 0.27 66 1012.8
20260906131335 59 4 0.0 3.0 0.00 0.89 0.27 66 1013.1
20260906130854 59 16 0.0 3.0 0.00 0.89 0.27 66 1013.1
20260906130354 59 331 0.0 2.0 0.00 0.89 0.27 66 1013.2
20260906125849 59 330 0.0 2.0 0.00 0.89 0.27 66 1013.2
20260906125347 58 84 0.0 1.0 0.00 0.89 0.27 66 1013.1
20260906124845 58 73 0.0 2.0 0.00 0.89 0.27 66 1013.2
20260906124506 58 72 0.0 2.0 0.00 0.89 0.27 66 1012.8
20260906124405 58 72 0.0 2.0 0.00 0.89 0.27 66 1013.2
20260906123842 58 240 0.0 1.0 0.00 0.89 0.27 66 1013.2
20260906123342 58 239 0.0 1.0 0.00 0.89 0.27 66 1013.2
20260906123042 58 235 0.0 1.0 0.01 0.89 0.27 66 1012.9
20260906122839 58 235 0.0 1.0 0.01 0.89 0.27 66 1013.1
20260906122355 58 303 0.0 1.0 0.01 0.89 0.27 66 1013.1
20260906121849 58 221 0.0 1.0 0.01 0.89 0.27 66 1013.2
20260906121551 57 299 0.0 1.0 0.01 0.89 0.27 66 1012.8
20260906121350 58 303 0.0 1.0 0.01 0.89 0.27 66 1013.1
20260906120845 57 264 0.0 1.0 0.01 0.89 0.27 66 1013.0
20260906120344 57 347 0.0 1.0 0.01 0.89 0.27 66 1013.0
20260906120047 57 346 0.0 1.0 0.01 0.89 0.27 66 1012.5
20260906115841 57 347 0.0 1.0 0.01 0.89 0.27 66 1012.8
20260906115340 57 264 0.0 0.0 0.01 0.89 0.27 66 1012.9
20260906114833 57 310 0.0 0.0 0.01 0.89 0.27 66 1012.8
20260906114600 57 310 0.0 0.0 0.01 0.89 0.27 66 1012.5
20260906114355 57 310 0.0 0.0 0.01 0.89 0.27 66 1012.7
20260906113853 57 255 0.0 0.0 0.01 0.89 0.27 66 1012.9
20260906113349 57 63 0.0 0.0 0.01 0.89 0.27 66 1012.7
20260906113046 56 65 0.0 0.0 0.00 0.88 0.26 66 1012.4
20260906112845 57 65 0.0 0.0 0.00 0.88 0.26 66 1012.6
20260906112406 57 65 0.0 0.0 0.00 0.88 0.26 66 1012.6
20260906111844 57 65 0.0 0.0 0.00 0.88 0.26 66 1012.5
20260906111544 56 65 0.0 0.0 0.00 0.88 0.26 66 1012.2
20260906111343 57 65 0.0 0.0 0.00 0.88 0.26 66 1012.4
20260906110348 57 65 0.0 0.0 0.00 0.88 0.26 66 1012.3
20260906110046 56 65 0.0 0.0 0.00 0.88 0.26 66 1012.0
20260906105846 57 65 0.0 0.0 0.00 0.88 0.26 66 1012.3
20260906105345 57 65 0.0 0.0 0.00 0.88 0.26 66 1012.2
20260906104843 57 65 0.0 0.0 0.01 0.88 0.26 66 1012.2
20260906104555 56 65 0.0 0.0 0.01 0.88 0.26 66 1011.9
20260906104344 57 65 0.0 0.0 0.01 0.88 0.26 66 1012.1
20260906103841 57 65 0.0 0.0 0.01 0.88 0.26 66 1012.0
20260906103338 57 65 0.0 0.0 0.01 0.88 0.26 66 1012.0
20260906103016 56 65 0.0 0.0 0.01 0.88 0.26 66 1011.6
20260906102915 57 65 0.0 0.0 0.01 0.88 0.26 66 1012.0
20260906102354 57 65 0.0 0.0 0.02 0.88 0.26 66 1011.9
20260906101850 57 65 0.0 1.0 0.03 0.88 0.26 66 1011.9
20260906101549 56 65 0.0 1.0 0.03 0.88 0.26 66 1011.5
20260906101348 57 65 0.0 1.0 0.03 0.88 0.26 66 1011.9
20260906100346 57 66 0.0 0.0 0.04 0.88 0.26 66 1011.9
20260906100044 56 66 0.0 0.0 0.04 0.88 0.26 66 1011.5
20260906095843 57 66 0.0 0.0 0.04 0.88 0.26 66 1011.9
20260906095343 57 66 0.0 0.0 0.04 0.88 0.26 66 1011.8
20260906094859 57 66 0.0 0.0 0.03 0.87 0.25 66 1011.7
20260906094611 56 66 0.0 0.0 0.03 0.87 0.25 66 1011.4
20260906094355 57 66 0.0 0.0 0.03 0.87 0.25 66 1011.7
20260906093849 57 66 0.0 0.0 0.04 0.87 0.25 66 1011.6
20260906093348 57 66 0.0 0.0 0.05 0.87 0.25 66 1011.7
20260906093108 56 66 0.0 0.0 0.05 0.87 0.25 66 1011.4
20260906092843 57 66 0.0 0.0 0.05 0.87 0.25 66 1011.6
20260906092404 57 66 0.0 0.0 0.04 0.86 0.24 66 1011.5
20260906091841 57 66 0.0 0.0 0.04 0.85 0.23 66 1011.5
20260906091543 57 66 0.0 0.0 0.04 0.85 0.23 66 1011.2
20260906091341 57 66 0.0 0.0 0.03 0.84 0.22 66 1011.4
20260906090858 57 66 0.0 0.0 0.04 0.84 0.22 66 1011.5
20260906090357 57 66 0.0 0.0 0.06 0.84 0.22 66 1011.4
20260906090052 57 66 0.0 0.0 0.07 0.84 0.22 66 1011.2
20260906085851 57 66 0.0 0.0 0.07 0.84 0.22 66 1011.4
20260906085350 57 66 0.0 0.0 0.08 0.84 0.22 66 1011.5
20260906084846 58 66 0.0 0.0 0.09 0.84 0.22 66 1011.5
20260906084508 57 66 0.0 0.0 0.10 0.84 0.22 66 1011.3
20260906084406 58 66 0.0 0.0 0.10 0.83 0.21 66 1011.6
20260906083841 58 66 0.0 0.0 0.12 0.82 0.20 66 1011.5
20260906083342 58 67 0.0 0.0 0.13 0.82 0.20 66 1011.4
20260906083046 57 66 0.0 0.0 0.13 0.82 0.20 66 1011.1
20260906082839 58 66 0.0 0.0 0.13 0.82 0.20 66 1011.4
20260906082359 58 67 0.0 0.0 0.14 0.82 0.20 66 1011.4
20260906081911 58 67 0.0 0.0 0.14 0.81 0.19 66 1011.4
20260906081549 57 67 0.0 0.0 0.14 0.81 0.19 66 1011.0
20260906081347 58 67 0.0 1.0 0.14 0.81 0.19 66 1011.3
20260906080844 58 67 0.0 1.0 0.14 0.80 0.18 66 1011.4
20260906080405 58 66 0.0 0.0 0.12 0.78 0.16 66 1011.2
20260906080043 57 40 0.0 0.0 0.11 0.77 0.15 66 1010.9
20260906075840 58 39 0.0 0.0 0.11 0.77 0.15 66 1011.2
20260906075341 58 38 0.0 2.0 0.10 0.76 0.14 66 1011.2
20260906074839 58 39 0.0 2.0 0.09 0.75 0.13 66 1011.2
20260906074542 58 317 0.0 1.0 0.08 0.74 0.12 66 1010.9
20260906074340 58 317 0.0 1.0 0.07 0.73 0.11 66 1011.3
20260906073834 58 49 0.0 2.0 0.04 0.70 0.08 66 1011.1
20260906073354 58 49 0.0 2.0 0.03 0.69 0.07 66 1011.1
20260906073015 58 189 0.0 1.0 0.03 0.69 0.07 66 1010.8
20260906072906 58 277 0.0 1.0 0.03 0.69 0.07 66 1011.0
20260906072345 58 280 0.0 1.0 0.02 0.68 0.06 66 1010.9
20260906071842 58 279 0.0 0.0 0.01 0.67 0.05 66 1010.9
20260906071544 58 279 0.0 0.0 0.01 0.67 0.05 66 1010.5
20260906071343 58 279 0.0 0.0 0.01 0.67 0.05 66 1010.7
20260906070841 58 279 0.0 0.0 0.00 0.66 0.04 66 1010.8
20260906070400 58 279 0.0 0.0 0.00 0.66 0.04 66 1010.7
20260906070036 58 279 0.0 0.0 0.00 0.66 0.04 66 1010.4
20260906065834 58 279 0.0 0.0 0.00 0.66 0.04 66 1010.7
20260906065354 58 279 0.0 0.0 0.00 0.66 0.04 66 1010.6
20260906064850 59 279 0.0 0.0 0.01 0.66 0.04 66 1010.6
20260906064546 58 279 0.0 0.0 0.01 0.66 0.04 66 1010.3
20260906064345 59 279 0.0 0.0 0.01 0.66 0.04 66 1010.6
20260906063842 59 279 0.0 1.0 0.01 0.66 0.04 66 1010.7
20260906063341 59 279 0.0 1.0 0.01 0.66 0.04 66 1010.7
20260906063041 58 279 0.0 0.0 0.01 0.66 0.04 66 1010.4
20260906062839 59 279 0.0 0.0 0.01 0.66 0.04 66 1010.7
20260906062338 59 279 0.0 0.0 0.01 0.66 0.04 66 1010.6
20260906061835 59 279 0.0 1.0 0.01 0.66 0.04 66 1010.6
20260906061539 58 279 0.0 1.0 0.01 0.66 0.04 66 1010.3
20260906061338 59 279 0.0 1.0 0.01 0.66 0.04 66 1010.6
20260906060854 59 279 0.0 0.0 0.01 0.66 0.04 66 1010.7
20260906060414 59 279 0.0 0.0 0.01 0.66 0.04 66 1010.7
20260906060011 59 279 0.0 0.0 0.01 0.66 0.04 66 1010.3
20260906055910 59 279 0.0 0.0 0.01 0.66 0.04 66 1010.6
20260906055336 59 279 0.0 0.0 0.02 0.66 0.04 66 1010.7
20260906054851 59 279 0.0 0.0 0.01 0.65 0.03 66 1010.6
20260906054551 59 279 0.0 1.0 0.01 0.65 0.03 66 1010.3
20260906054343 59 279 0.0 1.0 0.01 0.65 0.03 66 1010.6
20260906053836 59 279 0.0 1.0 0.01 0.65 0.03 66 1010.7
20260906053334 59 319 0.0 1.0 0.01 0.65 0.03 66 1010.6
20260906053014 59 2 0.0 1.0 0.01 0.65 0.03 66 1010.2
20260906052912 59 2 0.0 1.0 0.01 0.65 0.03 66 1010.6
20260906052405 59 314 0.0 2.0 0.01 0.65 0.03 66 1010.7
20260906051836 59 311 0.0 2.0 0.02 0.65 0.03 66 1010.7
20260906051513 59 250 0.0 1.0 0.02 0.65 0.03 66 1010.4
20260906051411 59 248 0.0 1.0 0.02 0.65 0.03 66 1010.7
20260906050846 59 248 0.0 1.0 0.02 0.65 0.03 66 1010.8
20260906050339 59 247 0.0 1.0 0.03 0.65 0.03 66 1010.8
20260906050104 59 247 0.0 1.0 0.03 0.65 0.03 66 1010.5
20260906045851 59 247 0.0 1.0 0.03 0.65 0.03 66 1010.8
20260906045344 59 247 0.0 1.0 0.02 0.64 0.02 66 1010.8
20260906044841 60 246 0.0 1.0 0.03 0.64 0.02 66 1010.8
20260906044521 59 318 0.0 1.0 0.04 0.64 0.02 66 1010.5
20260906044414 60 325 0.0 1.0 0.06 0.64 0.02 66 1010.8
20260906043838 60 298 0.0 1.0 0.08 0.64 0.02 66 1010.8
20260906043333 60 244 0.0 1.0 0.08 0.64 0.02 66 1010.8
20260906043049 59 243 0.0 1.0 0.09 0.64 0.02 66 1010.3
20260906042836 60 257 0.0 1.0 0.10 0.64 0.02 66 1010.7
20260906042350 60 257 0.0 0.0 0.12 0.64 0.02 66 1010.7
20260906041847 60 257 0.0 1.0 0.13 0.63 0.01 66 1010.8
20260906041546 59 257 0.0 1.0 0.14 0.63 0.01 66 1010.5
20260906041340 60 257 0.0 1.0 0.14 0.63 0.01 66 1010.8
20260906040852 60 266 0.0 1.0 0.16 0.63 0.01 66 1010.9
20260906040347 60 265 0.0 0.0 0.15 0.62 0.00 66 1010.8
20260906040056 59 265 0.0 1.0 0.16 0.62 0.62 66 1010.4
20260906035845 60 265 0.0 1.0 0.16 0.62 0.62 66 1010.8
20260906035345 60 265 0.0 1.0 0.16 0.62 0.62 66 1010.8
20260906034846 60 265 0.0 1.0 0.17 0.61 0.61 66 1010.8
20260906034521 60 265 0.0 2.0 0.15 0.59 0.59 66 1010.4
20260906034345 60 300 0.0 2.0 0.14 0.57 0.57 66 1010.9
20260906033856 60 302 0.0 2.0 0.14 0.56 0.56 66 1010.8
20260906033004 60 270 0.0 2.0 0.17 0.55 0.55 66 1010.4
20260906032851 60 266 0.0 2.0 0.18 0.54 0.54 66 1010.7
20260906032342 60 271 0.0 1.0 0.25 0.52 0.52 66 1010.5
20260906031849 61 247 0.0 1.0 0.28 0.50 0.50 66 1010.6
20260906031549 60 247 0.0 1.0 0.27 0.49 0.49 65 1010.3
20260906031340 60 247 0.0 1.0 0.27 0.49 0.49 66 1010.6
20260906030839 61 247 0.0 1.0 0.26 0.47 0.47 66 1010.6
20260906030351 61 247 0.0 1.0 0.26 0.47 0.47 65 1010.6
20260906030011 60 247 0.0 1.0 0.25 0.46 0.46 65 1010.2
20260906025853 60 247 0.0 1.0 0.25 0.46 0.46 65 1010.5
20260906025342 61 247 0.0 1.0 0.24 0.45 0.46 65 1010.6
20260906024849 61 247 0.0 0.0 0.23 0.44 0.44 65 1010.7
20260906024529 60 247 0.0 2.0 0.22 0.43 0.43 65 1010.4
20260906024354 61 247 0.0 2.0 0.22 0.43 0.43 65 1010.7
20260906023854 61 246 1.0 3.0 0.21 0.42 0.42 65 1010.6
20260906023339 61 252 1.0 3.0 0.20 0.41 0.41 65 1010.6
20260906023055 60 148 0.0 0.0 0.17 0.38 0.38 65 1010.3
20260906022838 61 148 0.0 0.0 0.15 0.36 0.36 65 1010.6
20260906022335 61 141 0.0 0.0 0.05 0.26 0.27 65 1010.6
20260906021847 61 244 0.0 0.0 0.01 0.22 0.22 65 1010.4
20260906021549 60 238 0.0 0.0 0.01 0.22 0.22 65 1010.0
20260906021348 61 238 0.0 0.0 0.02 0.22 0.22 65 1010.4
20260906020344 61 238 0.0 0.0 0.02 0.21 0.21 65 1010.5
20260906020040 60 238 0.0 0.0 0.03 0.21 0.21 65 1010.0
20260906015839 61 238 0.0 0.0 0.03 0.21 0.21 65 1010.4
20260906015339 61 238 0.0 0.0 0.04 0.21 0.21 65 1010.5
20260906014834 61 238 0.0 0.0 0.05 0.21 0.21 65 1010.6
20260906014633 61 238 0.0 0.0 0.06 0.21 0.21 65 1010.1
20260906014354 61 238 0.0 0.0 0.06 0.21 0.21 65 1010.6
20260906013336 61 238 0.0 0.0 0.08 0.21 0.21 65 1010.6
20260906013059 61 238 0.0 0.0 0.10 0.21 0.21 65 1010.2
20260906012852 61 238 0.0 0.0 0.12 0.21 0.21 65 1010.7
20260906012351 61 238 0.0 0.0 0.14 0.21 0.21 65 1010.6
20260906011846 61 238 0.0 0.0 0.15 0.21 0.21 65 1010.6
20260906011547 61 238 0.0 0.0 0.15 0.21 0.21 64 1010.1
20260906011346 61 238 0.0 0.0 0.14 0.20 0.20 64 1010.5
20260906010842 61 238 0.0 0.0 0.14 0.20 0.20 64 1010.5
20260906010341 61 238 0.0 0.0 0.13 0.19 0.19 64 1010.5
20260906010022 61 238 0.0 0.0 0.12 0.18 0.18 64 1010.2
20260906005856 61 238 0.0 0.0 0.12 0.18 0.18 64 1010.6
20260906005351 62 238 0.0 0.0 0.11 0.17 0.17 64 1010.5
20260906004849 62 238 0.0 0.0 0.10 0.15 0.16 64 1010.5
20260906004547 61 238 0.0 0.0 0.10 0.15 0.15 64 1010.1
20260906004344 62 238 0.0 0.0 0.10 0.15 0.15 64 1010.5
20260906003841 62 238 0.0 0.0 0.10 0.14 0.14 64 1010.4
20260906003342 62 238 0.0 0.0 0.12 0.13 0.13 64 1010.3
20260906003043 61 238 0.0 0.0 0.10 0.10 0.10 64 1010.0
20260906002842 62 238 0.0 0.0 0.09 0.09 0.09 63 1010.3
20260906002342 62 238 0.0 0.0 0.07 0.07 0.07 63 1010.3
20260906001839 62 238 0.0 0.0 0.06 0.06 0.06 62 1010.1
20260906001542 61 238 0.0 0.0 0.06 0.06 0.06 62 1009.7
20260906001340 62 238 0.0 0.0 0.06 0.06 0.06 62 1010.1
20260906000858 62 238 0.0 0.0 0.06 0.06 0.06 62 1010.1
20260906000340 62 238 0.0 0.0 0.06 0.06 0.06 61 1010.0
20260906000015 62 238 0.0 0.0 0.06 0.06 0.06 60 1009.5
20260905235914 62 238 0.0 0.0 0.06 0.06 0.06 59 1010.0
20260905235349 62 238 0.0 0.0 0.06 0.06 0.06 58 1009.9
20260905234845 63 238 0.0 0.0 0.05 0.05 0.05 57 1010.0
20260905234544 62 238 0.0 0.0 0.05 0.05 0.05 57 1009.6
20260905234343 63 238 0.0 0.0 0.05 0.05 0.05 57 1010.0
20260905233859 63 238 0.0 0.0 0.04 0.04 0.04 58 1010.0
20260905233338 63 147 0.0 0.0 0.00 0.00 0.00 60 1010.0
20260905233056 62 147 0.0 0.0 0.00 0.00 0.00 60 1009.6
20260905232854 63 147 0.0 0.0 0.00 0.00 0.00 60 1009.9
20260905232353 63 147 0.0 0.0 0.00 0.00 0.00 60 1009.8
20260905231849 63 147 0.0 0.0 0.00 0.00 0.00 61 1009.7
20260905231503 63 147 0.0 0.0 0.00 0.00 0.00 61 1009.3
20260905231402 63 147 0.0 0.0 0.00 0.00 0.00 61 1009.6
20260905230837 63 147 0.0 0.0 0.00 0.00 0.00 62 1009.6
20260905230338 63 147 0.0 0.0 0.00 0.00 0.00 62 1009.5
20260905230051 63 147 0.0 0.0 0.00 0.00 0.00 62 1009.1
20260905225850 63 147 0.0 0.0 0.00 0.00 0.00 62 1009.6
20260905225410 63 147 0.0 0.0 0.00 0.00 0.00 62 1009.5
20260905224845 64 147 0.0 0.0 0.00 0.00 0.00 62 1009.6
20260905224545 63 147 0.0 0.0 0.00 0.00 0.00 62 1009.0
20260905224344 64 147 0.0 0.0 0.00 0.00 0.00 62 1009.5
20260905223839 64 147 0.0 0.0 0.00 0.00 0.00 62 1009.3
20260905223339 64 147 0.0 0.0 0.00 0.00 0.00 62 1009.4
20260905223058 63 147 0.0 0.0 0.00 0.00 0.00 62 1008.9
20260905222857 64 147 0.0 0.0 0.00 0.00 0.00 62 1009.4